GW2366 Weather Reports


Display with metric or nautical units.
time (UTC)temp
F
wind
direction
speed
MPH
gust
MPH
rain 1hr
in
rain 24hr
in
rain mn
in
humidity
%
barometer
mb
20260831132449 51 19 2.0 2.0 0.00 0.00 0.00 99 1011.9
20260831131948 51 19 2.0 2.0 0.00 0.00 0.00 99 1011.9
20260831131443 51 3 0.0 0.0 0.00 0.00 0.00 99 1012.1
20260831130938 51 38 1.0 1.0 0.00 0.00 0.00 99 1011.9
20260831130433 51 37 2.0 2.0 0.00 0.00 0.00 99 1011.8
20260831125928 51 37 2.0 2.0 0.00 0.00 0.00 99 1011.8
20260831125427 51 49 1.0 1.0 0.00 0.00 0.00 99 1012.0
20260831124923 51 21 1.0 1.0 0.00 0.00 0.00 99 1011.8
20260831124419 51 5 0.0 0.0 0.00 0.00 0.00 99 1011.9
20260831123915 51 16 0.0 1.0 0.00 0.00 0.00 99 1011.7
20260831123413 51 38 2.0 2.0 0.00 0.00 0.00 99 1011.9
20260831122908 51 23 1.0 1.0 0.00 0.00 0.00 99 1011.9
20260831122404 51 188 1.0 2.0 0.00 0.00 0.00 99 1012.0
20260831121858 51 8 0.0 0.0 0.00 0.00 0.00 99 1012.0
20260831121354 51 3 0.0 0.0 0.00 0.00 0.00 99 1011.9
20260831120849 51 10 1.0 1.0 0.00 0.00 0.00 99 1011.9
20260831120343 51 317 0.0 0.0 0.00 0.00 0.00 99 1012.0
20260831115838 51 317 0.0 0.0 0.00 0.00 0.00 99 1012.0
20260831115207 51 301 0.0 0.0 0.00 0.00 0.00 99 1011.9
20260831114706 51 301 0.0 0.0 0.00 0.00 0.00 99 1011.9
20260831114205 51 301 0.0 0.0 0.00 0.00 0.00 99 1011.8
20260831113701 51 260 1.0 2.0 0.00 0.00 0.00 99 1012.0
20260831113155 51 321 0.0 0.0 0.00 0.00 0.00 99 1011.8
20260831112654 51 297 1.0 1.0 0.00 0.00 0.00 99 1011.9
20260831112150 51 297 1.0 1.0 0.00 0.00 0.00 99 1011.9
20260831111646 51 303 0.0 0.0 0.00 0.00 0.00 99 1011.9
20260831111142 51 306 0.0 0.0 0.00 0.00 0.00 99 1011.8
20260831110637 51 289 0.0 0.0 0.00 0.00 0.00 99 1011.8
20260831110132 51 289 0.0 1.0 0.00 0.00 0.00 99 1011.8
20260831105631 51 279 0.0 1.0 0.00 0.00 0.00 99 1011.9
20260831105126 51 296 0.0 0.0 0.00 0.00 0.00 99 1011.8
20260831104622 51 296 0.0 0.0 0.00 0.00 0.00 99 1011.8
20260831104118 51 283 0.0 0.0 0.00 0.00 0.00 99 1011.8
20260831103613 51 283 0.0 0.0 0.00 0.00 0.00 99 1011.8
20260831103108 51 282 0.0 0.0 0.00 0.00 0.00 99 1011.7
20260831102603 50 289 0.0 0.0 0.00 0.00 0.00 99 1011.7
20260831102058 50 289 0.0 0.0 0.00 0.00 0.00 99 1011.6
20260831101557 50 289 0.0 0.0 0.00 0.00 0.00 99 1011.6
20260831101054 50 288 0.0 0.0 0.00 0.00 0.00 99 1011.5
20260831100549 50 288 0.0 0.0 0.00 0.00 0.00 99 1011.5
20260831100045 49 289 0.0 0.0 0.00 0.00 0.00 99 1011.5
20260831094552 49 289 0.0 0.0 0.00 0.00 0.00 99 1011.5
20260831094048 49 289 0.0 0.0 0.00 0.00 0.00 99 1011.5
20260831093543 49 289 0.0 0.0 0.00 0.00 0.00 99 1011.6
20260831093039 49 292 0.0 0.0 0.00 0.00 0.00 99 1011.5
20260831092535 50 298 0.0 0.0 0.00 0.00 0.00 99 1011.4
20260831092031 50 298 0.0 0.0 0.00 0.00 0.00 99 1011.4
20260831091530 50 298 0.0 0.0 0.00 0.00 0.00 99 1011.4
20260831091026 50 301 0.0 0.0 0.00 0.00 0.00 99 1011.5
20260831090521 50 301 0.0 0.0 0.00 0.00 0.00 99 1011.5
20260831090018 50 301 0.0 0.0 0.00 0.00 0.00 99 1011.5
20260831085512 50 301 0.0 0.0 0.00 0.00 0.00 99 1011.6
20260831085007 50 306 0.0 0.0 0.00 0.00 0.00 99 1011.7
20260831084503 50 306 0.0 0.0 0.00 0.00 0.00 99 1011.6
20260831083959 49 314 0.0 0.0 0.00 0.00 0.00 99 1011.8
20260831083454 49 314 0.0 0.0 0.00 0.00 0.00 99 1011.8
20260831082953 49 314 0.0 0.0 0.00 0.00 0.00 98 1012.0
20260831082448 49 314 0.0 0.0 0.00 0.00 0.00 98 1012.0
20260831081942 49 314 0.0 0.0 0.00 0.00 0.00 98 1011.8
20260831081201 49 314 0.0 0.0 0.00 0.00 0.00 98 1011.9
20260831080657 49 314 0.0 0.0 0.00 0.00 0.00 98 1011.9
20260831080156 49 314 0.0 0.0 0.00 0.00 0.00 98 1011.9
20260831075652 49 314 0.0 0.0 0.00 0.00 0.00 98 1011.8
20260831075148 50 314 0.0 0.0 0.00 0.00 0.00 98 1011.8
20260831074646 50 314 0.0 0.0 0.00 0.00 0.00 98 1011.7
20260831064110 51 315 0.0 0.0 0.00 0.00 0.00 95 1011.7
20260831063606 51 315 0.0 0.0 0.00 0.00 0.00 95 1011.7
20260831063101 51 315 0.0 0.0 0.00 0.00 0.00 95 1011.7
20260831062555 52 315 0.0 0.0 0.00 0.00 0.00 94 1012.0
20260831062055 52 315 0.0 0.0 0.00 0.00 0.00 94 1012.0
20260831061552 52 316 0.0 0.0 0.00 0.00 0.00 94 1011.8
20260831055452 52 286 0.0 0.0 0.00 0.00 0.00 91 1011.7
20260831054948 52 286 0.0 0.0 0.00 0.00 0.00 91 1011.7
20260831054447 52 286 0.0 0.0 0.00 0.00 0.00 91 1011.7
20260831053946 53 286 0.0 0.0 0.00 0.00 0.00 91 1011.7
20260831053357 53 286 0.0 0.0 0.00 0.00 0.00 90 1011.7
20260831052852 53 286 0.0 0.0 0.00 0.00 0.00 90 1011.7
20260831052346 54 286 0.0 0.0 0.00 0.00 0.00 90 1011.7
20260831051844 54 286 0.0 0.0 0.00 0.00 0.00 90 1011.7
20260831044553 56 287 0.0 0.0 0.00 0.00 0.00 86 1011.9
20260831044048 56 287 0.0 0.0 0.00 0.00 0.00 86 1011.9
20260831043543 57 287 0.0 0.0 0.00 0.00 0.00 85 1011.7
20260831043038 57 287 0.0 0.0 0.00 0.00 0.00 85 1011.9
20260831041651 58 285 0.0 0.0 0.00 0.00 0.00 82 1011.5
20260831041150 58 285 0.0 0.0 0.00 0.00 0.00 82 1011.5
20260831040645 58 285 0.0 0.0 0.00 0.00 0.00 82 1011.5
20260831034753 60 285 0.0 0.0 0.00 0.00 0.00 76 1011.4
20260831034248 60 285 0.0 0.0 0.00 0.00 0.00 76 1011.4
20260831033743 60 285 0.0 0.0 0.00 0.00 0.00 77 1011.3
20260831033242 60 285 0.0 0.0 0.00 0.00 0.00 76 1011.3
20260831032113 61 282 0.0 0.0 0.00 0.00 0.00 76 1011.3
20260831031612 61 282 0.0 0.0 0.00 0.00 0.00 76 1011.3
20260831031111 62 282 0.0 0.0 0.00 0.00 0.00 74 1011.3
20260831030611 62 282 0.0 0.0 0.00 0.00 0.00 74 1011.3
20260831030110 63 282 0.0 0.0 0.00 0.00 0.00 71 1011.1
20260831025608 63 282 0.0 0.0 0.00 0.00 0.00 71 1011.1
20260831025103 63 282 0.0 0.0 0.00 0.00 0.00 71 1011.2
20260831024600 64 282 1.0 1.0 0.00 0.00 0.00 69 1011.3
20260831024058 66 282 0.0 0.0 0.00 0.00 0.00 65 1011.2
20260831023557 66 282 0.0 0.0 0.00 0.00 0.00 64 1011.2
20260831023056 68 282 0.0 1.0 0.00 0.00 0.00 60 1011.3
20260831022551 68 282 0.0 1.0 0.00 0.00 0.00 59 1011.4
20260831022047 69 257 0.0 0.0 0.00 0.00 0.00 55 1011.3
20260831021545 71 281 0.0 0.0 0.00 0.00 0.00 53 1011.4
20260831021041 71 281 0.0 0.0 0.00 0.00 0.00 53 1011.4
20260831020536 71 282 0.0 0.0 0.00 0.00 0.00 51 1011.4
20260831015759 73 279 1.0 1.0 0.00 0.00 0.00 47 1011.6
20260831015254 73 279 1.0 1.0 0.00 0.00 0.00 47 1011.6
20260831014748 73 279 1.0 1.0 0.00 0.00 0.00 47 1011.6
20260831013913 73 275 2.0 3.0 0.00 0.00 0.00 47 1011.6
20260831013408 73 275 2.0 3.0 0.00 0.00 0.00 47 1011.6
20260831012902 74 278 1.0 2.0 0.00 0.00 0.00 48 1011.9
20260831012358 74 278 1.0 2.0 0.00 0.00 0.00 48 1011.9
20260831011857 74 278 1.0 2.0 0.00 0.00 0.00 48 1011.9
20260831011352 74 268 1.0 1.0 0.00 0.00 0.00 47 1011.7
20260831010848 74 251 3.0 3.0 0.00 0.00 0.00 47 1011.7
20260831010348 75 309 2.0 3.0 0.00 0.00 0.00 47 1011.8
20260831005843 75 288 1.0 2.0 0.00 0.00 0.00 47 1011.8
20260831005252 76 280 1.0 1.0 0.00 0.00 0.00 46 1011.8
20260831004747 76 280 1.0 1.0 0.00 0.00 0.00 46 1011.8
20260831004243 76 280 1.0 1.0 0.00 0.00 0.00 46 1011.8
20260831003738 78 298 0.0 1.0 0.00 0.00 0.00 45 1012.0
20260831003235 78 298 0.0 1.0 0.00 0.00 0.00 45 1012.0
20260831002733 78 298 0.0 1.0 0.00 0.00 0.00 45 1012.0
20260831002233 78 228 2.0 2.0 0.00 0.00 0.00 45 1011.8
20260831001729 78 229 4.0 7.0 0.00 0.00 0.00 44 1012.0
20260831001224 78 229 4.0 7.0 0.00 0.00 0.00 44 1012.0
20260831000721 77 268 2.0 2.0 0.00 0.00 0.00 45 1012.0
20260831000215 78 265 3.0 5.0 0.00 0.00 0.00 44 1012.1
20260830235714 80 292 3.0 3.0 0.00 0.00 0.00 43 1012.2
20260830235210 81 291 1.0 1.0 0.00 0.00 0.00 42 1012.0
20260830234704 81 226 1.0 2.0 0.00 0.00 0.00 42 1012.1
20260830234201 80 273 2.0 3.0 0.00 0.00 0.00 43 1012.2
20260830233656 80 305 2.0 3.0 0.00 0.00 0.00 44 1012.0
20260830233151 80 277 3.0 3.0 0.00 0.00 0.00 44 1012.1
20260830232647 80 302 1.0 1.0 0.00 0.00 0.00 45 1012.0
20260830232142 81 294 2.0 2.0 0.00 0.00 0.00 44 1012.1
20260830231138 81 247 2.0 2.0 0.00 0.00 0.00 43 1012.0
20260830230634 81 247 2.0 2.0 0.00 0.00 0.00 43 1012.0
20260830230133 81 307 2.0 3.0 0.00 0.00 0.00 43 1012.1
20260830225628 81 307 2.0 3.0 0.00 0.00 0.00 43 1012.1
20260830225123 79 253 1.0 2.0 0.00 0.00 0.00 45 1012.4
20260830224622 79 253 1.0 2.0 0.00 0.00 0.00 45 1012.4
20260830224118 80 249 5.0 7.0 0.00 0.00 0.00 47 1012.5
20260830223614 78 226 2.0 2.0 0.00 0.00 0.00 47 1012.5
20260830223109 78 271 3.0 3.0 0.00 0.00 0.00 48 1012.6
20260830222603 79 71 4.0 6.0 0.00 0.00 0.00 48 1012.6
20260830222059 78 272 0.0 1.0 0.00 0.00 0.00 46 1012.6
20260830221555 78 213 3.0 6.0 0.00 0.00 0.00 47 1012.6
20260830221051 78 254 4.0 6.0 0.00 0.00 0.00 47 1012.5
20260830220545 78 229 1.0 1.0 0.00 0.00 0.00 47 1012.6
20260830220043 78 230 3.0 3.0 0.00 0.00 0.00 48 1012.9
20260830215538 78 268 3.0 5.0 0.00 0.00 0.00 48 1012.9
20260830215032 78 241 3.0 6.0 0.00 0.00 0.00 48 1013.1
20260830214528 78 241 3.0 6.0 0.00 0.00 0.00 48 1013.1
20260830214027 78 264 3.0 3.0 0.00 0.00 0.00 49 1013.2
20260830213523 77 248 3.0 5.0 0.00 0.00 0.00 50 1013.1
20260830213018 78 247 5.0 7.0 0.00 0.00 0.00 49 1013.2
20260830212513 78 276 4.0 7.0 0.00 0.00 0.00 51 1013.4
20260830212008 78 276 4.0 7.0 0.00 0.00 0.00 51 1013.4
20260830211503 78 276 4.0 7.0 0.00 0.00 0.00 51 1013.4
20260830210957 79 249 2.0 2.0 0.00 0.00 0.00 50 1013.2
20260830210457 80 302 3.0 3.0 0.00 0.00 0.00 50 1013.3
20260830205955 80 259 1.0 2.0 0.00 0.00 0.00 51 1013.1
20260830205454 78 263 2.0 2.0 0.00 0.00 0.00 52 1013.2
20260830204950 78 242 4.0 6.0 0.00 0.00 0.00 51 1013.4
20260830204449 78 242 4.0 6.0 0.00 0.00 0.00 51 1013.4
20260830203943 78 292 1.0 1.0 0.00 0.00 0.00 53 1013.5
20260830203440 78 90 2.0 2.0 0.00 0.00 0.00 52 1013.4
20260830202938 78 90 2.0 2.0 0.00 0.00 0.00 52 1013.4
20260830201713 78 9 2.0 3.0 0.00 0.00 0.00 54 1013.5
20260830201208 78 9 2.0 3.0 0.00 0.00 0.00 54 1013.5
20260830200704 78 292 2.0 3.0 0.00 0.00 0.00 55 1013.7
20260830200203 78 298 1.0 2.0 0.00 0.00 0.00 55 1013.8
20260830195659 76 97 2.0 3.0 0.00 0.00 0.00 57 1013.7
20260830195156 76 252 1.0 2.0 0.00 0.00 0.00 57 1013.7
20260830194655 77 88 2.0 3.0 0.00 0.00 0.00 56 1013.8
20260830194155 77 289 0.0 1.0 0.00 0.00 0.00 56 1013.8
20260830193645 76 287 4.0 6.0 0.00 0.00 0.00 55 1013.8
20260830193144 76 197 3.0 3.0 0.00 0.00 0.00 55 1013.8
20260830192228 75 93 2.0 2.0 0.00 0.00 0.00 57 1013.9
20260830191724 75 93 2.0 2.0 0.00 0.00 0.00 57 1013.9
20260830191223 74 79 0.0 1.0 0.00 0.00 0.00 59 1013.8
20260830190719 74 79 0.0 1.0 0.00 0.00 0.00 59 1013.8
20260830190214 75 89 0.0 0.0 0.00 0.00 0.00 57 1014.0
20260830185712 75 99 2.0 3.0 0.00 0.00 0.00 56 1013.9
20260830185208 74 179 4.0 6.0 0.00 0.00 0.00 57 1014.1
20260830184707 73 61 1.0 1.0 0.00 0.00 0.00 60 1014.0
20260830184207 73 122 4.0 5.0 0.00 0.00 0.00 59 1013.9
20260830183702 73 202 0.0 0.0 0.00 0.00 0.00 59 1013.9
20260830183157 73 263 0.0 1.0 0.00 0.00 0.00 59 1014.1
20260830182652 74 321 1.0 1.0 0.00 0.00 0.00 58 1014.1
20260830182149 73 63 2.0 2.0 0.00 0.00 0.00 60 1013.9
20260830181644 73 63 2.0 2.0 0.00 0.00 0.00 60 1013.9
20260830175708 70 359 3.0 5.0 0.00 0.00 0.00 63 1014.0
20260830175203 70 359 3.0 5.0 0.00 0.00 0.00 63 1014.0
20260830174657 70 359 3.0 5.0 0.00 0.00 0.00 63 1014.0
20260830173821 69 289 1.0 2.0 0.00 0.00 0.00 64 1014.1
20260830173316 69 289 1.0 2.0 0.00 0.00 0.00 64 1014.1
20260830172807 69 340 0.0 0.0 0.00 0.00 0.00 64 1014.2
20260830172306 67 336 0.0 0.0 0.00 0.00 0.00 66 1014.1
20260830171759 66 358 2.0 2.0 0.00 0.00 0.00 69 1014.1
20260830171254 65 336 0.0 0.0 0.00 0.00 0.00 70 1013.9
20260830170749 66 2 4.0 5.0 0.00 0.00 0.00 70 1014.0
20260830170248 65 334 1.0 2.0 0.00 0.00 0.00 70 1014.1
20260830165746 65 334 1.0 2.0 0.00 0.00 0.00 70 1014.1
20260830165242 65 334 1.0 2.0 0.00 0.00 0.00 70 1014.1
20260830164624 63 353 1.0 2.0 0.00 0.00 0.00 74 1013.9
20260830164119 63 353 1.0 2.0 0.00 0.00 0.00 74 1013.9
20260830163615 63 357 2.0 3.0 0.00 0.00 0.00 74 1013.8
20260830163110 63 354 1.0 2.0 0.00 0.00 0.00 74 1014.0
20260830162605 63 354 1.0 2.0 0.00 0.00 0.00 74 1014.0
20260830162100 63 354 1.0 2.0 0.00 0.00 0.00 74 1014.0
20260830161555 63 343 0.0 1.0 0.00 0.00 0.00 74 1014.0
20260830161050 60 356 1.0 2.0 0.00 0.00 0.00 78 1013.9
20260830160546 60 356 1.0 2.0 0.00 0.00 0.00 78 1013.9
20260830160040 60 358 2.0 2.0 0.00 0.00 0.00 78 1013.8
20260830155507 60 342 0.0 1.0 0.00 0.00 0.00 80 1014.0
20260830155003 60 342 0.0 1.0 0.00 0.00 0.00 80 1014.0
20260830154457 60 341 1.0 1.0 0.00 0.00 0.00 79 1014.0
20260830153954 60 341 1.0 1.0 0.00 0.00 0.00 79 1014.0
20260830153450 59 347 1.0 2.0 0.00 0.00 0.00 80 1013.9
20260830152949 59 346 1.0 2.0 0.00 0.00 0.00 81 1013.9
20260830152444 59 346 1.0 2.0 0.00 0.00 0.00 81 1013.9
20260830151943 59 342 3.0 3.0 0.00 0.00 0.00 81 1013.9
20260830151152 59 330 2.0 2.0 0.00 0.00 0.00 81 1013.7
20260830150648 59 330 2.0 2.0 0.00 0.00 0.00 81 1013.7
20260830150142 59 322 0.0 0.0 0.00 0.00 0.00 83 1013.6
20260830143104 51 290 0.0 0.0 0.00 0.00 0.00 99 1013.4
20260830142600 51 290 0.0 0.0 0.00 0.00 0.00 99 1013.4
20260830142054 51 290 0.0 0.0 0.00 0.00 0.00 99 1013.4
20260830140349 49 290 0.0 0.0 0.00 0.00 0.00 99 1013.3
20260830135848 49 290 0.0 0.0 0.00 0.00 0.00 99 1013.3
20260830135343 49 290 0.0 0.0 0.00 0.00 0.00 99 1013.3
20260830133656 48 290 0.0 0.0 0.00 0.00 0.00 98 1013.1
20260830133152 48 290 0.0 0.0 0.00 0.00 0.00 98 1013.1
20260830132648 48 290 0.0 0.0 0.00 0.00 0.00 98 1012.9